Location: Aalen
(48.8330°N, 10.1000°E)
Time: 10:17:31
(UTC+02:00)

S-56A Canister/Altair - Pass Details

Date: 04 August 2021
Orbit: 632 x 2500 km, 38.9° (Epoch: 21 September)

Event Time Altitude Azimuth Distance (km) Brightness Sun altitude
Rises 17:30:42 0° 257° (WSW) 5,597 13.1 31.6°
Reaches altitude 10° 17:34:09 10° 254° (WSW) 4,774 13.1 31.0°
Maximum altitude 17:47:48 57° 181° (S) 2,810 10.9 28.8°
Drops below altitude 10° 18:02:01 10° 109° (ESE) 4,959 11.2 26.5°
Sets 18:05:41 0° 105° (ESE) 5,819 11.5 25.9°
